Theta_e
331 330 329 329 330 330 329 330 332 331 332 333 332 332 332 331 331 331 331 330 332 332
331 328 330 330 331 330 331 330 331 331 333 333 333 332 333 331 331 330 332 330 327 327
331 329 330 330 329 330 331 331 331 330 332 332 333 331 330 328 330 331 332 329 329 328
331 331 330 330 329 330 331 331 330 330 330 331 331 328 330 328 329 329 330 331 328 327
332 332 330 329 330 330 330 331 330 330 330 330 330 328 327 327 328 328 327 326 326 325
332 332 331 330 330 330 331 331 331 331 330 330 326 326 327 327 328 328 328 328 326 326
332 331 330 330 331 330 332 331 332 331 331 331 329 325 325 327 328 328 328 330 330 329
332 331 330 331 330 332 332 332 332 331 331 331 330 326 326 327 328 329 328 328 329 332
330 329 330 331 331 332 331 332 332 331 330 330 328 306 313 323 328 329 329 328 327 326
330 328 329 330 330 331 331 332 332 331 331 330 328 302 306 313 329 330 328 330 327 326
329 327 329 330 329 330 331 332 332 332 332 327 325 301 303 311 328 328 327 329 328 328
330 327 329 329 328 329 330 330 330 328 330 328 324 300 303 317 326 326 328 328 328 328
329 330 329 330 327 329 330 329 328 330 331 317 324 299 302 319 326 324 323 325 323 311
330 332 331 331 328 327 328 327 328 329 329 325 323 318 300 307 328 325 324 324 326 325
Wind_Speed
4 2 1 0 1 1 3 4 4 4 3 2 3 4 4 4 4 4 4 3 2 2
4 4 2 4 3 3 4 4 5 4 2 3 2 4 5 4 4 4 4 4 2 1
5 4 4 4 4 5 5 5 4 4 2 3 4 4 4 4 5 5 4 4 6 4
5 5 5 4 4 4 5 5 4 4 3 3 5 4 4 5 5 5 6 6 7 8
6 6 5 5 4 4 6 5 5 5 5 5 5 4 4 5 5 6 7 8 8 10
6 5 5 6 5 5 6 6 5 5 6 6 6 6 5 5 6 6 7 9 9 10
6 6 5 6 5 6 6 7 6 6 7 7 7 7 5 7 7 7 7 8 9 10
6 6 7 6 6 6 7 6 7 7 7 7 6 6 8 8 7 8 9 7 8 9
8 7 8 8 6 6 7 7 7 7 7 6 5 8 10 9 7 8 9 9 8 10
8 8 9 8 7 6 6 6 7 6 6 6 7 5 8 8 7 8 7 10 10 8
9 8 9 8 7 6 5 6 6 7 6 5 5 5 8 7 7 8 8 9 11 11
10 9 9 8 7 5 6 6 5 5 7 7 7 4 8 7 6 7 9 7 10 10
11 10 10 9 7 5 6 7 5 7 8 9 8 2 5 6 7 7 6 7 8 8
10 11 10 9 7 6 7 8 7 8 8 8 8 5 3 4 7 8 8 7 8 6
Wind_Direction
146 150 153 101 63 110 166 155 136 142 139 127 178 162 150 177 184 183 222 207 139 149
153 152 147 86 98 148 140 143 138 133 127 139 142 120 137 146 152 171 166 136 96 324
155 166 137 118 133 140 130 139 145 137 123 105 87 94 126 133 150 150 132 143 145 147
155 164 142 134 141 140 130 134 158 156 152 122 103 96 103 115 129 132 139 119 125 123
150 157 148 143 148 143 134 137 154 157 148 127 106 94 94 108 124 125 115 115 120 122
150 144 143 140 148 135 134 132 143 149 144 128 113 97 92 98 108 110 120 122 126 125
144 137 140 137 146 141 133 134 136 137 133 125 118 107 97 104 108 105 100 111 127 137
137 128 131 129 134 131 130 130 134 136 130 127 130 131 128 118 113 114 112 100 113 124
137 133 133 131 129 129 130 133 130 137 135 134 116 128 131 129 125 122 125 123 107 114
142 137 138 138 135 130 132 140 135 134 138 116 121 147 135 139 127 127 127 127 123 106
148 138 141 139 131 134 134 141 143 143 131 132 123 134 131 126 118 115 123 135 132 130
158 152 150 142 136 129 138 134 142 113 136 132 123 142 134 125 116 116 128 136 138 127
171 170 164 147 144 133 129 128 132 117 115 111 132 151 131 142 130 121 114 98 96 98
174 176 167 149 147 142 132 127 126 120 123 125 139 141 82 121 136 125 119 119 134 127